Location: Oshawa
(43.9000°N, 78.8670°W)
Time: 04:31:24
(UTC-04:00)

Cosmos 1707 Rocket - Visible Passes

Search period start: 25 April 2017 00:00
Search period end: 05 May 2017 00:00
Orbit: 605 x 632 km, 82.5° (Epoch: 23 April)

Date Brightness Start Highest point End Pass type
(mag) Time Alt. Az. Time Alt. Az. Time Alt. Az.
25 Apr 4.9 21:18:03 10° SSW 21:22:16 43° WNW 21:26:30 10° N visible
26 Apr 6.1 21:36:02 10° SW 21:39:39 24° WNW 21:43:17 10° NNW visible
27 Apr 6.7 21:54:46 10° W 21:57:09 14° WNW 21:59:32 10° NW visible
29 Apr 5.1 20:49:13 10° SSW 20:53:24 41° WNW 20:57:34 10° N visible
30 Apr 6.3 21:07:14 10° SW 21:10:47 23° WNW 21:14:20 10° NNW visible
01 May 7.6 05:38:51 10° ENE 05:39:10 10° ENE 05:39:28 10° ENE visible
01 May 6.9 21:26:04 10° W 21:28:17 14° WNW 21:30:31 10° NW visible
